Time,TemperatureF,DewpointF,PressureIn,WindDirection,WindDirectionDegrees,WindSpeedMPH,WindSpeedGustMPH,Humidity,HourlyPrecipIn,Conditions,Clouds,dailyrainin,SoftwareType,DateUTC
2013-11-18 00:03:00,23.2,6.4,0.00,North,0,3.8,4.0,48,0.00,,---,0.00,VWS V14.01,2013-11-18 06:03:00,
2013-11-18 00:08:00,22.8,6.1,0.00,North,0,1.6,4.0,48,0.00,,---,0.00,VWS V14.01,2013-11-18 06:08:00,
2013-11-18 00:13:00,22.7,5.5,0.00,North,0,2.2,4.0,47,0.00,,---,0.00,VWS V14.01,2013-11-18 06:13:00,
2013-11-18 00:18:00,22.5,5.8,0.00,NNW,338,2.0,3.1,48,0.00,,---,0.00,VWS V14.01,2013-11-18 06:18:00,
2013-11-18 00:23:00,22.7,5.9,0.00,NNW,338,1.6,3.1,48,0.00,,---,0.00,VWS V14.01,2013-11-18 06:23:00,
2013-11-18 00:28:00,23.0,6.3,0.00,NNW,338,0.9,3.1,48,0.00,,---,0.00,VWS V14.01,2013-11-18 06:28:00,
2013-11-18 00:33:00,23.0,6.3,0.00,NNW,338,0.9,1.1,48,0.00,,---,0.00,VWS V14.01,2013-11-18 06:33:00,
2013-11-18 00:38:00,23.2,6.4,0.00,NNW,338,1.3,1.3,48,0.00,,---,0.00,VWS V14.01,2013-11-18 06:38:00,
2013-11-18 00:43:00,23.6,6.8,0.00,West,270,1.6,2.2,48,0.00,,---,0.00,VWS V14.01,2013-11-18 06:43:00,
2013-11-18 00:48:00,23.7,6.9,0.00,West,270,2.0,2.2,48,0.00,,---,0.00,VWS V14.01,2013-11-18 06:48:00,
2013-11-18 00:53:00,24.1,7.3,0.00,West,270,0.9,2.5,48,0.00,,---,0.00,VWS V14.01,2013-11-18 06:53:00,
2013-11-18 00:58:00,24.5,7.6,0.00,West,270,2.7,2.7,48,0.00,,---,0.00,VWS V14.01,2013-11-18 06:58:00,
2013-11-18 01:03:00,24.8,7.9,0.00,SW,225,2.0,2.9,48,0.00,,---,0.00,VWS V14.01,2013-11-18 07:03:00,
2013-11-18 01:08:00,24.6,7.8,0.00,SW,225,0.9,2.9,48,0.00,,---,0.00,VWS V14.01,2013-11-18 07:08:00,
2013-11-18 01:13:00,24.6,7.8,0.00,West,270,2.2,2.9,48,0.00,,---,0.00,VWS V14.01,2013-11-18 07:13:00,
2013-11-18 01:18:00,24.6,7.8,0.00,West,270,2.7,2.7,48,0.00,,---,0.00,VWS V14.01,2013-11-18 07:18:00,
2013-11-18 01:23:00,24.6,7.8,0.00,South,180,2.2,2.7,48,0.00,,---,0.00,VWS V14.01,2013-11-18 07:23:00,
2013-11-18 01:28:00,24.5,7.6,0.00,South,180,0.0,2.7,48,0.00,,---,0.00,VWS V14.01,2013-11-18 07:28:00,
2013-11-18 01:33:00,24.5,7.6,0.00,West,270,2.5,2.7,48,0.00,,---,0.00,VWS V14.01,2013-11-18 07:33:00,
2013-11-18 01:38:00,24.8,7.9,0.00,West,270,2.5,3.6,48,0.00,,---,0.00,VWS V14.01,2013-11-18 07:38:00,
2013-11-18 01:43:00,24.8,7.9,0.00,West,270,2.5,3.6,48,0.00,,---,0.00,VWS V14.01,2013-11-18 07:43:00,
2013-11-18 01:48:00,24.6,7.8,0.00,West,270,0.0,1.3,48,0.00,,---,0.00,VWS V14.01,2013-11-18 07:48:00,
2013-11-18 01:53:00,24.1,6.8,0.00,West,270,1.1,1.3,47,0.00,,---,0.00,VWS V14.01,2013-11-18 07:53:00,
2013-11-18 01:58:00,23.7,6.9,0.00,NW,315,1.3,3.1,48,0.00,,---,0.00,VWS V14.01,2013-11-18 07:58:00,
2013-11-18 02:03:00,24.3,7.4,0.00,West,270,1.6,2.5,48,0.00,,---,0.00,VWS V14.01,2013-11-18 08:03:00,
2013-11-18 02:08:00,24.5,7.6,0.00,WNW,292,0.0,2.5,48,0.00,,---,0.00,VWS V14.01,2013-11-18 08:08:00,
2013-11-18 02:13:00,24.6,7.8,0.00,West,270,2.2,2.9,48,0.00,,---,0.00,VWS V14.01,2013-11-18 08:13:00,
2013-11-18 02:18:00,24.8,7.9,0.00,West,270,1.3,2.0,48,0.00,,---,0.00,VWS V14.01,2013-11-18 08:18:00,
2013-11-18 02:23:00,25.2,8.3,0.00,West,270,4.9,4.9,48,0.00,,---,0.00,VWS V14.01,2013-11-18 08:23:00,
2013-11-18 02:29:00,25.7,8.8,0.00,WNW,292,2.9,5.6,48,0.00,,---,0.00,VWS V14.01,2013-11-18 08:29:00,
2013-11-18 02:34:00,25.7,8.8,0.00,West,270,2.5,2.9,48,0.00,,---,0.00,VWS V14.01,2013-11-18 08:34:00,
2013-11-18 02:39:00,25.5,8.6,0.00,West,270,1.6,2.9,48,0.00,,---,0.00,VWS V14.01,2013-11-18 08:39:00,
2013-11-18 02:44:00,25.7,8.8,0.00,West,270,4.3,4.9,48,0.00,,---,0.00,VWS V14.01,2013-11-18 08:44:00,
2013-11-18 02:49:00,25.7,8.8,0.00,WSW,248,1.6,4.3,48,0.00,,---,0.00,VWS V14.01,2013-11-18 08:49:00,
2013-11-18 02:54:00,25.5,8.6,0.00,West,270,2.0,4.3,48,0.00,,---,0.00,VWS V14.01,2013-11-18 08:54:00,
2013-11-18 02:59:00,25.7,8.8,0.00,WNW,292,2.7,4.3,48,0.00,,---,0.00,VWS V14.01,2013-11-18 08:59:00,
2013-11-18 03:04:00,26.1,9.1,0.00,NW,315,2.7,3.8,48,0.00,,---,0.00,VWS V14.01,2013-11-18 09:04:00,
2013-11-18 03:09:00,26.1,9.1,0.00,West,270,1.3,3.8,48,0.00,,---,0.00,VWS V14.01,2013-11-18 09:09:00,
2013-11-18 03:14:00,25.7,8.8,0.00,NW,315,2.0,3.8,48,0.00,,---,0.00,VWS V14.01,2013-11-18 09:14:00,
2013-11-18 03:19:00,25.5,8.6,0.00,NW,315,1.6,2.9,48,0.00,,---,0.00,VWS V14.01,2013-11-18 09:19:00,
2013-11-18 03:24:00,25.5,8.6,0.00,NW,315,2.5,3.6,48,0.00,,---,0.00,VWS V14.01,2013-11-18 09:24:00,
2013-11-18 03:29:00,25.7,9.2,0.00,NW,315,2.7,4.0,49,0.00,,---,0.00,VWS V14.01,2013-11-18 09:29:00,
2013-11-18 03:34:00,25.9,8.9,0.00,WNW,292,0.9,2.5,48,0.00,,---,0.00,VWS V14.01,2013-11-18 09:34:00,
2013-11-18 03:39:00,25.7,8.8,0.00,WNW,292,0.0,2.5,48,0.00,,---,0.00,VWS V14.01,2013-11-18 09:39:00,
2013-11-18 03:44:00,25.2,8.3,0.00,WNW,292,1.3,2.5,48,0.00,,---,0.00,VWS V14.01,2013-11-18 09:44:00,
2013-11-18 03:49:00,25.4,8.9,0.00,WNW,292,2.5,3.1,49,0.00,,---,0.00,VWS V14.01,2013-11-18 09:49:00,
2013-11-18 03:54:00,25.5,9.1,0.00,NW,315,3.4,3.4,49,0.00,,---,0.00,VWS V14.01,2013-11-18 09:54:00,
2013-11-18 03:59:00,25.5,9.1,0.00,NW,315,3.1,3.4,49,0.00,,---,0.00,VWS V14.01,2013-11-18 09:59:00,
2013-11-18 04:04:00,25.5,9.1,0.00,NNW,338,1.1,3.4,49,0.00,,---,0.00,VWS V14.01,2013-11-18 10:04:00,
2013-11-18 04:09:00,25.2,8.7,0.00,South,180,0.9,3.4,49,0.00,,---,0.00,VWS V14.01,2013-11-18 10:09:00,
2013-11-18 04:14:00,24.3,7.9,0.00,South,180,0.0,3.4,49,0.00,,---,0.00,VWS V14.01,2013-11-18 10:14:00,
2013-11-18 04:19:00,23.9,7.6,0.00,NW,315,2.0,2.2,49,0.00,,---,0.00,VWS V14.01,2013-11-18 10:19:00,
2013-11-18 04:24:00,24.3,7.9,0.00,West,270,1.6,2.7,49,0.00,,---,0.00,VWS V14.01,2013-11-18 10:24:00,
2013-11-18 04:29:00,24.5,8.5,0.00,NW,315,2.7,2.9,50,0.00,,---,0.00,VWS V14.01,2013-11-18 10:29:00,
2013-11-18 04:34:00,24.5,8.5,0.00,NNW,338,2.0,2.7,50,0.00,,---,0.00,VWS V14.01,2013-11-18 10:34:00,
2013-11-18 04:39:00,24.6,8.7,0.00,NNW,338,1.6,2.7,50,0.00,,---,0.00,VWS V14.01,2013-11-18 10:39:00,
2013-11-18 04:44:00,24.5,8.5,0.00,West,270,0.0,2.7,50,0.00,,---,0.00,VWS V14.01,2013-11-18 10:44:00,
2013-11-18 04:48:00,24.5,8.9,0.00,NW,315,3.1,3.1,51,0.00,,---,0.00,VWS V14.01,2013-11-18 10:48:00,
2013-11-18 04:53:00,24.6,9.1,0.00,NW,315,0.9,3.4,51,0.00,,---,0.00,VWS V14.01,2013-11-18 10:53:00,
2013-11-18 04:58:00,24.3,8.8,0.00,NW,315,0.0,3.4,51,0.00,,---,0.00,VWS V14.01,2013-11-18 10:58:00,
2013-11-18 05:03:00,23.9,8.4,0.00,NW,315,0.0,0.9,51,0.00,,---,0.00,VWS V14.01,2013-11-18 11:03:00,
2013-11-18 05:08:00,23.7,8.3,0.00,WNW,292,2.5,2.7,51,0.00,,---,0.00,VWS V14.01,2013-11-18 11:08:00,
2013-11-18 05:13:00,24.1,9.0,0.00,South,180,0.0,2.7,52,0.00,,---,0.00,VWS V14.01,2013-11-18 11:13:00,
2013-11-18 05:18:00,23.9,8.9,0.00,East,90,0.0,2.0,52,0.00,,---,0.00,VWS V14.01,2013-11-18 11:18:00,
2013-11-18 05:23:00,23.4,7.9,0.00,North,0,0.0,2.7,51,0.00,,---,0.00,VWS V14.01,2013-11-18 11:23:00,
2013-11-18 05:28:00,23.0,8.0,0.00,North,0,0.0,2.7,52,0.00,,---,0.00,VWS V14.01,2013-11-18 11:28:00,
2013-11-18 05:33:00,23.2,9.0,0.00,West,270,2.0,2.9,54,0.00,,---,0.00,VWS V14.01,2013-11-18 11:33:00,
2013-11-18 05:38:00,23.6,9.4,0.00,West,270,2.5,3.8,54,0.00,,---,0.00,VWS V14.01,2013-11-18 11:38:00,
2013-11-18 05:43:00,23.9,9.7,0.00,West,270,0.0,3.8,54,0.00,,---,0.00,VWS V14.01,2013-11-18 11:43:00,
2013-11-18 05:48:00,23.4,8.8,0.00,North,0,2.0,2.5,53,0.00,,---,0.00,VWS V14.01,2013-11-18 11:48:00,
2013-11-18 05:53:00,23.2,9.0,0.00,West,270,1.3,3.1,54,0.00,,---,0.00,VWS V14.01,2013-11-18 11:53:00,
2013-11-18 05:58:00,23.6,9.4,0.00,WNW,292,0.0,3.1,54,0.00,,---,0.00,VWS V14.01,2013-11-18 11:58:00,
2013-11-18 06:03:00,23.9,10.1,0.00,West,270,3.6,3.6,55,0.00,,---,0.00,VWS V14.01,2013-11-18 12:03:00,
2013-11-18 06:08:00,24.8,11.0,0.00,West,270,3.1,3.6,55,0.00,,---,0.00,VWS V14.01,2013-11-18 12:08:00,
2013-11-18 06:13:00,25.0,11.1,0.00,West,270,2.5,3.6,55,0.00,,---,0.00,VWS V14.01,2013-11-18 12:13:00,
2013-11-18 06:18:00,25.0,10.7,0.00,West,270,3.4,3.4,54,0.00,,---,0.00,VWS V14.01,2013-11-18 12:18:00,
2013-11-18 06:23:00,25.4,11.1,0.00,WNW,292,1.3,3.6,54,0.00,,---,0.00,VWS V14.01,2013-11-18 12:23:00,
2013-11-18 06:28:00,24.5,10.2,0.00,WNW,292,1.3,3.6,54,0.00,,---,0.00,VWS V14.01,2013-11-18 12:28:00,
2013-11-18 06:33:00,24.1,9.5,0.00,WNW,292,0.0,1.1,53,0.00,,---,0.00,VWS V14.01,2013-11-18 12:33:00,
2013-11-18 06:38:00,23.7,9.1,0.00,WNW,292,0.0,2.0,53,0.00,,---,0.00,VWS V14.01,2013-11-18 12:38:00,
2013-11-18 06:43:00,23.6,8.9,0.00,NW,315,2.7,2.7,53,0.00,,---,0.00,VWS V14.01,2013-11-18 12:43:00,
2013-11-18 06:48:00,23.9,9.7,0.00,NW,315,2.9,3.1,54,0.00,,---,0.00,VWS V14.01,2013-11-18 12:48:00,
2013-11-18 06:53:00,24.1,10.3,0.00,West,270,3.1,3.6,55,0.00,,---,0.00,VWS V14.01,2013-11-18 12:53:00,
2013-11-18 06:58:00,24.5,10.6,0.00,West,270,2.5,3.6,55,0.00,,---,0.00,VWS V14.01,2013-11-18 12:58:00,
2013-11-18 07:03:00,24.8,11.0,0.00,West,270,3.4,4.3,55,0.00,,---,0.00,VWS V14.01,2013-11-18 13:03:00,
2013-11-18 07:08:00,25.0,11.1,0.00,NW,315,4.0,6.0,55,0.00,,---,0.00,VWS V14.01,2013-11-18 13:08:00,
2013-11-18 07:13:00,25.5,11.2,0.00,West,270,6.0,6.0,54,0.00,,---,0.00,VWS V14.01,2013-11-18 13:13:00,
2013-11-18 07:18:00,25.4,11.1,0.00,NW,315,2.5,2.9,54,0.00,,---,0.00,VWS V14.01,2013-11-18 13:18:00,
2013-11-18 07:23:00,24.6,10.4,0.00,West,270,0.0,2.9,54,0.00,,---,0.00,VWS V14.01,2013-11-18 13:23:00,
2013-11-18 07:28:00,24.6,10.4,0.00,West,270,2.0,2.9,54,0.00,,---,0.00,VWS V14.01,2013-11-18 13:28:00,
2013-11-18 07:33:00,24.6,10.4,0.00,West,270,0.0,0.9,54,0.00,,---,0.00,VWS V14.01,2013-11-18 13:33:00,
2013-11-18 07:38:00,24.6,10.4,0.00,WNW,292,2.0,2.0,54,0.00,,---,0.00,VWS V14.01,2013-11-18 13:38:00,
2013-11-18 07:43:00,24.8,10.6,0.00,WSW,248,2.9,2.9,54,0.00,,---,0.00,VWS V14.01,2013-11-18 13:43:00,
2013-11-18 07:48:00,26.1,11.7,0.00,West,270,2.5,3.4,54,0.00,,---,0.00,VWS V14.01,2013-11-18 13:48:00,
2013-11-18 07:53:00,26.8,12.4,0.00,WNW,292,2.5,4.0,54,0.00,,---,0.00,VWS V14.01,2013-11-18 13:53:00,
2013-11-18 07:58:00,27.7,12.8,0.00,WNW,292,4.3,4.7,53,0.00,,---,0.00,VWS V14.01,2013-11-18 13:58:00,
2013-11-18 08:03:00,28.4,13.1,0.00,West,270,4.0,4.9,52,0.00,,---,0.00,VWS V14.01,2013-11-18 14:03:00,
2013-11-18 08:08:00,29.3,13.9,0.00,NW,315,3.1,4.9,52,0.00,,---,0.00,VWS V14.01,2013-11-18 14:08:00,
2013-11-18 08:13:00,30.0,14.1,0.00,West,270,2.5,4.9,51,0.00,,---,0.00,VWS V14.01,2013-11-18 14:13:00,
2013-11-18 08:18:00,31.1,14.7,0.00,WNW,292,3.1,3.6,50,0.00,,---,0.00,VWS V14.01,2013-11-18 14:18:00,
2013-11-18 08:23:00,32.4,15.8,0.00,NW,315,3.6,3.6,50,0.00,,---,0.00,VWS V14.01,2013-11-18 14:23:00,
2013-11-18 08:28:00,32.9,15.9,0.00,NW,315,2.9,3.6,49,0.00,,---,0.00,VWS V14.01,2013-11-18 14:28:00,
2013-11-18 08:33:00,34.2,16.5,0.00,West,270,3.8,4.0,48,0.00,,---,0.00,VWS V14.01,2013-11-18 14:33:00,
2013-11-18 08:38:00,34.7,16.6,0.00,WNW,292,3.4,4.7,47,0.00,,---,0.00,VWS V14.01,2013-11-18 14:38:00,
2013-11-18 08:43:00,35.1,16.4,0.00,SW,225,4.7,4.7,46,0.00,,---,0.00,VWS V14.01,2013-11-18 14:43:00,
2013-11-18 08:48:00,35.6,16.9,0.00,NW,315,2.9,3.1,46,0.00,,---,0.00,VWS V14.01,2013-11-18 14:48:00,
2013-11-18 08:50:00,44.8,21.4,0.00,WNW,292,4.9,6.3,39,0.00,,---,0.00,VWS V14.01,2013-11-18 14:50:00,
2013-11-18 08:51:00,44.8,21.4,0.00,WNW,292,4.9,6.3,39,0.00,,---,0.00,VWS V14.01,2013-11-18 14:51:00,
2013-11-18 08:52:00,44.8,21.4,0.00,NW,315,4.0,6.3,39,0.00,,---,0.00,VWS V14.01,2013-11-18 14:52:00,
2013-11-18 08:53:00,36.5,17.7,0.00,NW,315,2.9,3.6,46,0.00,,---,0.00,VWS V14.01,2013-11-18 14:53:00,
2013-11-18 08:54:00,45.2,21.7,0.00,West,270,5.4,6.3,39,0.00,,---,0.00,VWS V14.01,2013-11-18 14:54:00,
2013-11-18 08:58:00,37.4,18.5,0.00,SW,225,4.0,4.7,46,0.00,,---,0.00,VWS V14.01,2013-11-18 14:58:00,
2013-11-18 09:03:00,38.3,18.9,0.00,SSW,202,3.6,4.9,45,0.00,,---,0.00,VWS V14.01,2013-11-18 15:03:00,
2013-11-18 09:08:00,39.0,19.5,0.00,SW,225,3.4,4.9,45,0.00,,---,0.00,VWS V14.01,2013-11-18 15:08:00,
2013-11-18 09:13:00,39.4,19.3,0.00,West,270,2.7,5.6,44,0.00,,---,0.00,VWS V14.01,2013-11-18 15:13:00,
2013-11-18 09:18:00,39.6,18.4,0.00,West,270,6.3,6.7,42,0.00,,---,0.00,VWS V14.01,2013-11-18 15:18:00,
2013-11-18 09:23:00,39.8,18.6,0.00,NW,315,5.4,6.7,42,0.00,,---,0.00,VWS V14.01,2013-11-18 15:23:00,
2013-11-18 09:28:00,40.8,19.5,0.00,WSW,248,4.3,6.7,42,0.00,,---,0.00,VWS V14.01,2013-11-18 15:28:00,
2013-11-18 09:33:00,41.7,19.8,0.00,NW,315,5.6,6.0,41,0.00,,---,0.00,VWS V14.01,2013-11-18 15:33:00,
2013-11-18 09:38:00,42.3,19.7,0.00,West,270,5.6,8.5,40,0.00,,---,0.00,VWS V14.01,2013-11-18 15:38:00,
2013-11-18 09:43:00,43.2,20.5,0.00,NW,315,3.4,8.5,40,0.00,,---,0.00,VWS V14.01,2013-11-18 15:43:00,
2013-11-18 09:48:00,44.4,21.6,0.00,WNW,292,3.4,6.3,40,0.00,,---,0.00,VWS V14.01,2013-11-18 15:48:00,
2013-11-18 09:53:00,44.8,21.4,0.00,WNW,292,4.0,6.3,39,0.00,,---,0.00,VWS V14.01,2013-11-18 15:53:00,
2013-11-18 09:58:00,46.2,22.7,0.00,SW,225,2.9,6.3,39,0.00,,---,0.00,VWS V14.01,2013-11-18 15:58:00,
2013-11-18 10:03:00,47.5,23.2,0.00,SW,225,4.3,5.8,38,0.00,,---,0.00,VWS V14.01,2013-11-18 16:03:00,
2013-11-18 10:08:00,48.6,23.5,0.00,SW,225,5.6,5.8,37,0.00,,---,0.00,VWS V14.01,2013-11-18 16:08:00,
2013-11-18 10:13:00,49.5,24.3,0.00,SSW,202,2.9,5.8,37,0.00,,---,0.00,VWS V14.01,2013-11-18 16:13:00,
2013-11-18 10:18:00,50.2,22.9,0.00,WSW,248,4.3,6.0,34,0.00,,---,0.00,VWS V14.01,2013-11-18 16:18:00,
2013-11-18 10:23:00,50.9,22.9,0.00,WSW,248,5.4,6.3,33,0.00,,---,0.00,VWS V14.01,2013-11-18 16:23:00,
2013-11-18 10:28:00,51.6,22.8,0.00,SW,225,5.4,6.3,32,0.00,,---,0.00,VWS V14.01,2013-11-18 16:28:00,
2013-11-18 10:33:00,52.2,22.5,0.00,SW,225,6.5,6.5,31,0.00,,---,0.00,VWS V14.01,2013-11-18 16:33:00,
2013-11-18 10:38:00,52.9,23.1,0.00,West,270,4.0,6.5,31,0.00,,---,0.00,VWS V14.01,2013-11-18 16:38:00,
2013-11-18 10:43:00,53.3,22.6,0.00,WSW,248,3.6,6.5,30,0.00,,---,0.00,VWS V14.01,2013-11-18 16:43:00,
2013-11-18 10:48:00,53.8,22.3,0.00,West,270,3.8,4.7,29,0.00,,---,0.00,VWS V14.01,2013-11-18 16:48:00,
2013-11-18 10:53:00,54.5,22.1,0.00,SW,225,3.1,4.7,28,0.00,,---,0.00,VWS V14.01,2013-11-18 16:53:00,
2013-11-18 10:58:00,55.8,22.3,0.00,West,270,3.8,5.4,27,0.00,,---,0.00,VWS V14.01,2013-11-18 16:58:00,
2013-11-18 11:03:00,56.7,23.1,0.00,WSW,248,3.4,4.5,27,0.00,,---,0.00,VWS V14.01,2013-11-18 17:03:00,
2013-11-18 11:08:00,57.9,23.3,0.00,West,270,2.7,4.5,26,0.00,,---,0.00,VWS V14.01,2013-11-18 17:08:00,
2013-11-18 11:13:00,58.7,18.9,0.00,WSW,248,4.3,6.5,21,0.00,,---,0.00,VWS V14.01,2013-11-18 17:13:00,
2013-11-18 11:18:00,58.8,12.8,0.00,SW,225,4.0,6.5,16,0.00,,---,0.00,VWS V14.01,2013-11-18 17:18:00,
2013-11-18 11:23:00,59.7,3.1,0.00,SW,225,6.3,7.2,10,0.00,,---,0.00,VWS V14.01,2013-11-18 17:23:00,
2013-11-18 11:28:00,59.9,-1.5,0.00,SW,225,7.6,10.7,8,0.00,,---,0.00,VWS V14.01,2013-11-18 17:28:00,
2013-11-18 11:33:00,60.8,-3.7,0.00,SW,225,8.5,10.1,7,0.00,,---,0.00,VWS V14.01,2013-11-18 17:33:00,
2013-11-18 11:38:00,61.5,-3.1,0.00,SW,225,9.0,13.0,7,0.00,,---,0.00,VWS V14.01,2013-11-18 17:38:00,
2013-11-18 11:43:00,62.1,-2.7,0.00,West,270,16.1,16.1,7,0.00,,---,0.00,VWS V14.01,2013-11-18 17:43:00,
2013-11-18 11:48:00,62.3,-2.6,0.00,SW,225,12.5,16.6,7,0.00,,---,0.00,VWS V14.01,2013-11-18 17:48:00,
2013-11-18 11:53:00,62.6,-2.3,0.00,WSW,248,14.8,17.0,7,0.00,,---,0.00,VWS V14.01,2013-11-18 17:53:00,
2013-11-18 11:58:00,63.0,-5.3,0.00,SW,225,12.5,17.7,6,0.00,,---,0.00,VWS V14.01,2013-11-18 17:58:00,
2013-11-18 12:03:00,63.2,-5.2,0.00,SW,225,9.8,12.3,6,0.00,,---,0.00,VWS V14.01,2013-11-18 18:03:00,
2013-11-18 12:08:00,63.5,-4.9,0.00,SW,225,12.8,17.2,6,0.00,,---,0.00,VWS V14.01,2013-11-18 18:08:00,
2013-11-18 12:13:00,64.1,-4.5,0.00,SW,225,8.7,17.2,6,0.00,,---,0.00,VWS V14.01,2013-11-18 18:13:00,
2013-11-18 12:18:00,64.1,-4.5,0.00,SW,225,10.1,15.4,6,0.00,,---,0.00,VWS V14.01,2013-11-18 18:18:00,
2013-11-18 12:23:00,64.2,-4.4,0.00,SW,225,12.8,19.7,6,0.00,,---,0.00,VWS V14.01,2013-11-18 18:23:00,
2013-11-18 12:28:00,65.0,-3.8,0.00,SW,225,11.9,19.7,6,0.00,,---,0.00,VWS V14.01,2013-11-18 18:28:00,
2013-11-18 12:33:00,64.8,-4.0,0.00,SW,225,12.8,12.8,6,0.00,,---,0.00,VWS V14.01,2013-11-18 18:33:00,
2013-11-18 12:38:00,64.8,-4.0,0.00,SW,225,10.5,16.6,6,0.00,,---,0.00,VWS V14.01,2013-11-18 18:38:00,
2013-11-18 12:43:00,65.1,-3.7,0.00,SW,225,11.4,17.2,6,0.00,,---,0.00,VWS V14.01,2013-11-18 18:43:00,
2013-11-18 12:48:00,65.1,-3.7,0.00,SW,225,12.5,15.2,6,0.00,,---,0.00,VWS V14.01,2013-11-18 18:48:00,
2013-11-18 12:53:00,65.5,-3.5,0.00,SW,225,13.2,15.2,6,0.00,,---,0.00,VWS V14.01,2013-11-18 18:53:00,
2013-11-18 12:58:00,65.9,-3.2,0.00,SW,225,15.2,15.2,6,0.00,,---,0.00,VWS V14.01,2013-11-18 18:58:00,
2013-11-18 13:03:00,65.5,-3.5,0.00,SW,225,9.8,14.8,6,0.00,,---,0.00,VWS V14.01,2013-11-18 19:03:00,
2013-11-18 13:08:00,65.7,-3.3,0.00,SW,225,9.8,14.8,6,0.00,,---,0.00,VWS V14.01,2013-11-18 19:08:00,
2013-11-18 13:13:00,65.7,-3.3,0.00,SW,225,10.5,15.2,6,0.00,,---,0.00,VWS V14.01,2013-11-18 19:13:00,
2013-11-18 13:18:00,65.9,-3.2,0.00,SW,225,9.4,11.9,6,0.00,,---,0.00,VWS V14.01,2013-11-18 19:18:00,
2013-11-18 13:23:00,65.9,-3.2,0.00,SW,225,10.3,13.2,6,0.00,,---,0.00,VWS V14.01,2013-11-18 19:23:00,
2013-11-18 13:27:00,66.4,-6.6,0.00,SW,225,8.5,13.2,5,0.00,,---,0.00,VWS V14.01,2013-11-18 19:27:00,
2013-11-18 13:32:00,66.4,-6.6,0.00,SSW,202,10.7,13.2,5,0.00,,---,0.00,VWS V14.01,2013-11-18 19:32:00,
2013-11-18 13:37:00,66.2,-2.9,0.00,West,270,7.6,15.4,6,0.00,,---,0.00,VWS V14.01,2013-11-18 19:37:00,
2013-11-18 13:42:00,66.4,-6.6,0.00,SW,225,9.0,15.4,5,0.00,,---,0.00,VWS V14.01,2013-11-18 19:42:00,
2013-11-18 13:47:00,66.0,-3.1,0.00,SW,225,10.1,13.6,6,0.00,,---,0.00,VWS V14.01,2013-11-18 19:47:00,
2013-11-18 13:52:00,66.9,-6.2,0.00,SW,225,6.0,14.8,5,0.00,,---,0.00,VWS V14.01,2013-11-18 19:52:00,
2013-11-18 13:57:00,67.1,-6.1,0.00,SW,225,10.7,14.8,5,0.00,,---,0.00,VWS V14.01,2013-11-18 19:57:00,
2013-11-18 14:02:00,66.8,-6.3,0.00,SW,225,12.3,13.4,5,0.00,,---,0.00,VWS V14.01,2013-11-18 20:02:00,
2013-11-18 14:07:00,66.4,-6.6,0.00,SW,225,8.1,14.5,5,0.00,,---,0.00,VWS V14.01,2013-11-18 20:07:00,
2013-11-18 14:12:00,66.6,-6.5,0.00,SW,225,13.0,15.2,5,0.00,,---,0.00,VWS V14.01,2013-11-18 20:12:00,
2013-11-18 14:17:00,66.9,-6.2,0.00,SW,225,12.8,13.2,5,0.00,,---,0.00,VWS V14.01,2013-11-18 20:17:00,
2013-11-18 14:22:00,67.1,-6.1,0.00,SW,225,7.4,13.2,5,0.00,,---,0.00,VWS V14.01,2013-11-18 20:22:00,
2013-11-18 14:27:00,67.3,-5.9,0.00,SW,225,8.7,15.4,5,0.00,,---,0.00,VWS V14.01,2013-11-18 20:27:00,
2013-11-18 14:32:00,67.5,-5.8,0.00,WSW,248,10.5,12.1,5,0.00,,---,0.00,VWS V14.01,2013-11-18 20:32:00,
2013-11-18 14:37:00,67.5,-5.8,0.00,SW,225,8.5,12.3,5,0.00,,---,0.00,VWS V14.01,2013-11-18 20:37:00,
2013-11-18 14:42:00,67.5,-5.8,0.00,SSW,202,6.3,13.2,5,0.00,,---,0.00,VWS V14.01,2013-11-18 20:42:00,
2013-11-18 14:47:00,67.5,-5.8,0.00,West,270,11.9,13.2,5,0.00,,---,0.00,VWS V14.01,2013-11-18 20:47:00,
2013-11-18 14:52:00,67.1,-6.1,0.00,SW,225,10.7,15.2,5,0.00,,---,0.00,VWS V14.01,2013-11-18 20:52:00,
2013-11-18 14:57:00,67.3,-5.9,0.00,SW,225,8.1,15.4,5,0.00,,---,0.00,VWS V14.01,2013-11-18 20:57:00,
2013-11-18 15:02:00,67.5,-5.8,0.00,SW,225,5.4,10.1,5,0.00,,---,0.00,VWS V14.01,2013-11-18 21:02:00,
2013-11-18 15:07:00,68.0,-5.4,0.00,SW,225,14.8,14.8,5,0.00,,---,0.00,VWS V14.01,2013-11-18 21:07:00,
2013-11-18 15:12:00,67.5,-5.8,0.00,SW,225,10.1,14.8,5,0.00,,---,0.00,VWS V14.01,2013-11-18 21:12:00,
2013-11-18 15:17:00,66.9,-6.2,0.00,SW,225,10.1,17.2,5,0.00,,---,0.00,VWS V14.01,2013-11-18 21:17:00,
2013-11-18 15:22:00,66.9,-6.2,0.00,South,180,7.2,17.2,5,0.00,,---,0.00,VWS V14.01,2013-11-18 21:22:00,
2013-11-18 15:27:00,66.9,-6.2,0.00,SW,225,10.7,17.2,5,0.00,,---,0.00,VWS V14.01,2013-11-18 21:27:00,
2013-11-18 15:32:00,67.1,-6.1,0.00,SW,225,7.4,17.2,5,0.00,,---,0.00,VWS V14.01,2013-11-18 21:32:00,
2013-11-18 15:37:00,66.6,-6.5,0.00,SW,225,8.1,17.2,5,0.00,,---,0.00,VWS V14.01,2013-11-18 21:37:00,
2013-11-18 15:42:00,66.4,-6.6,0.00,SW,225,8.5,17.2,5,0.00,,---,0.00,VWS V14.01,2013-11-18 21:42:00,
2013-11-18 15:47:00,66.2,-2.9,0.00,SW,225,10.1,11.0,6,0.00,,---,0.00,VWS V14.01,2013-11-18 21:47:00,
2013-11-18 15:52:00,66.2,-2.9,0.00,WSW,248,10.1,12.1,6,0.00,,---,0.00,VWS V14.01,2013-11-18 21:52:00,
2013-11-18 15:57:00,65.5,-3.5,0.00,SW,225,10.5,14.5,6,0.00,,---,0.00,VWS V14.01,2013-11-18 21:57:00,
2013-11-18 16:02:00,65.5,-3.5,0.00,South,180,7.6,13.6,6,0.00,,---,0.00,VWS V14.01,2013-11-18 22:02:00,
2013-11-18 16:07:00,65.3,-3.6,0.00,SW,225,8.5,13.6,6,0.00,,---,0.00,VWS V14.01,2013-11-18 22:07:00,
2013-11-18 16:12:00,65.7,-3.3,0.00,SSW,202,7.4,13.6,6,0.00,,---,0.00,VWS V14.01,2013-11-18 22:12:00,
2013-11-18 16:17:00,65.3,-3.6,0.00,SW,225,9.2,10.7,6,0.00,,---,0.00,VWS V14.01,2013-11-18 22:17:00,
2013-11-18 16:22:00,65.1,-3.7,0.00,SW,225,7.6,11.0,6,0.00,,---,0.00,VWS V14.01,2013-11-18 22:22:00,
2013-11-18 16:27:00,64.8,-4.0,0.00,SW,225,7.4,11.0,6,0.00,,---,0.00,VWS V14.01,2013-11-18 22:27:00,
2013-11-18 16:32:00,64.4,-4.2,0.00,SSW,202,9.0,9.0,6,0.00,,---,0.00,VWS V14.01,2013-11-18 22:32:00,
2013-11-18 16:37:00,64.2,-4.4,0.00,SW,225,6.5,10.1,6,0.00,,---,0.00,VWS V14.01,2013-11-18 22:37:00,
2013-11-18 16:42:00,63.9,-4.6,0.00,South,180,6.5,10.1,6,0.00,,---,0.00,VWS V14.01,2013-11-18 22:42:00,
2013-11-18 16:47:00,63.5,-4.9,0.00,SW,225,5.6,7.2,6,0.00,,---,0.00,VWS V14.01,2013-11-18 22:47:00,
2013-11-18 16:52:00,63.0,-5.3,0.00,SSW,202,4.3,7.2,6,0.00,,---,0.00,VWS V14.01,2013-11-18 22:52:00,
2013-11-18 16:57:00,60.6,-3.8,0.00,South,180,5.4,7.2,7,0.00,,---,0.00,VWS V14.01,2013-11-18 22:57:00,
2013-11-18 17:02:00,59.6,-4.6,0.00,SSW,202,5.6,6.3,7,0.00,,---,0.00,VWS V14.01,2013-11-18 23:02:00,
2013-11-18 17:07:00,58.8,-5.1,0.00,South,180,5.6,6.3,7,0.00,,---,0.00,VWS V14.01,2013-11-18 23:07:00,
2013-11-18 17:12:00,58.1,-5.7,0.00,South,180,5.6,7.2,7,0.00,,---,0.00,VWS V14.01,2013-11-18 23:12:00,
2013-11-18 17:17:00,57.2,-3.6,0.00,South,180,4.3,5.4,8,0.00,,---,0.00,VWS V14.01,2013-11-18 23:17:00,
2013-11-18 17:22:00,55.8,-4.7,0.00,SE,135,4.3,6.0,8,0.00,,---,0.00,VWS V14.01,2013-11-18 23:22:00,
2013-11-18 17:27:00,55.1,-5.2,0.00,SE,135,3.6,6.0,8,0.00,,---,0.00,VWS V14.01,2013-11-18 23:27:00,
2013-11-18 17:32:00,54.3,-5.7,0.00,SE,135,4.0,5.4,8,0.00,,---,0.00,VWS V14.01,2013-11-18 23:32:00,
2013-11-18 17:37:00,53.4,-4.0,0.00,SSE,158,4.0,5.4,9,0.00,,---,0.00,VWS V14.01,2013-11-18 23:37:00,
2013-11-18 17:42:00,52.5,-4.7,0.00,SSE,158,3.4,5.4,9,0.00,,---,0.00,VWS V14.01,2013-11-18 23:42:00,
2013-11-18 17:47:00,52.2,-4.9,0.00,SSE,158,4.5,6.3,9,0.00,,---,0.00,VWS V14.01,2013-11-18 23:47:00,
2013-11-18 17:52:00,51.5,-5.5,0.00,South,180,4.3,6.3,9,0.00,,---,0.00,VWS V14.01,2013-11-18 23:52:00,
2013-11-18 17:57:00,51.1,-5.8,0.00,South,180,3.4,6.3,9,0.00,,---,0.00,VWS V14.01,2013-11-18 23:57:00,
2013-11-18 18:02:00,50.4,-6.3,0.00,South,180,3.6,4.9,9,0.00,,---,0.00,VWS V14.01,2013-11-19 00:02:00,
2013-11-18 18:07:00,50.2,-6.4,0.00,South,180,6.0,6.5,9,0.00,,---,0.00,VWS V14.01,2013-11-19 00:07:00,
2013-11-18 18:12:00,50.2,-6.4,0.00,SSE,158,4.3,8.1,9,0.00,,---,0.00,VWS V14.01,2013-11-19 00:12:00,
2013-11-18 18:17:00,49.8,-6.7,0.00,South,180,7.2,8.1,9,0.00,,---,0.00,VWS V14.01,2013-11-19 00:17:00,
2013-11-18 18:22:00,49.8,-6.7,0.00,South,180,6.0,10.1,9,0.00,,---,0.00,VWS V14.01,2013-11-19 00:22:00,
2013-11-18 18:27:00,49.7,-6.9,0.00,South,180,8.5,10.1,9,0.00,,---,0.00,VWS V14.01,2013-11-19 00:27:00,
2013-11-18 18:32:00,49.8,-6.7,0.00,South,180,10.1,10.1,9,0.00,,---,0.00,VWS V14.01,2013-11-19 00:32:00,
2013-11-18 18:37:00,49.8,-6.7,0.00,South,180,7.8,10.1,9,0.00,,---,0.00,VWS V14.01,2013-11-19 00:37:00,
2013-11-18 18:42:00,49.8,-6.7,0.00,South,180,8.7,10.7,9,0.00,,---,0.00,VWS V14.01,2013-11-19 00:42:00,
2013-11-18 18:43:00,44.8,16.0,0.00,South,180,3.8,7.2,31,0.00,,---,0.00,VWS V14.01,2013-11-19 00:43:00,
2013-11-18 18:44:00,44.8,16.0,0.00,South,180,4.9,7.2,31,0.00,,---,0.00,VWS V14.01,2013-11-19 00:44:00,
2013-11-18 18:45:00,44.4,16.4,0.00,South,180,4.3,5.4,32,0.00,,---,0.00,VWS V14.01,2013-11-19 00:45:00,
2013-11-18 18:46:00,44.4,16.4,0.00,South,180,4.3,5.4,32,0.00,,---,0.00,VWS V14.01,2013-11-19 00:46:00,
2013-11-18 18:47:00,49.7,-4.7,0.00,SSW,202,9.0,9.0,10,0.00,,---,0.00,VWS V14.01,2013-11-19 00:47:00,
2013-11-18 18:48:00,44.3,17.0,0.00,SSW,202,4.9,5.4,33,0.00,,---,0.00,VWS V14.01,2013-11-19 00:48:00,
2013-11-18 18:49:00,44.3,17.0,0.00,South,180,4.9,5.4,33,0.00,,---,0.00,VWS V14.01,2013-11-19 00:49:00,
2013-11-18 18:52:00,49.3,-5.0,0.00,South,180,8.5,9.0,10,0.00,,---,0.00,VWS V14.01,2013-11-19 00:52:00,
2013-11-18 18:57:00,48.6,0.0,0.00,South,180,5.4,11.0,13,0.00,,---,0.00,VWS V14.01,2013-11-19 00:57:00,
2013-11-18 19:02:00,47.5,6.1,0.00,SSW,202,3.4,4.3,18,0.00,,---,0.00,VWS V14.01,2013-11-19 01:02:00,
2013-11-18 19:07:00,47.3,6.0,0.00,South,180,4.7,5.4,18,0.00,,---,0.00,VWS V14.01,2013-11-19 01:07:00,
2013-11-18 19:12:00,46.8,13.7,0.00,SSW,202,7.4,7.6,26,0.00,,---,0.00,VWS V14.01,2013-11-19 01:12:00,
2013-11-18 19:17:00,46.8,15.4,0.00,South,180,7.4,7.8,28,0.00,,---,0.00,VWS V14.01,2013-11-19 01:17:00,
2013-11-18 19:22:00,46.2,15.8,0.00,South,180,5.6,7.8,29,0.00,,---,0.00,VWS V14.01,2013-11-19 01:22:00,
2013-11-18 19:27:00,46.1,15.6,0.00,South,180,4.9,7.8,29,0.00,,---,0.00,VWS V14.01,2013-11-19 01:27:00,
2013-11-18 19:32:00,45.3,15.7,0.00,South,180,5.8,7.2,30,0.00,,---,0.00,VWS V14.01,2013-11-19 01:32:00,
2013-11-18 19:37:00,45.2,15.6,0.00,South,180,4.5,7.2,30,0.00,,---,0.00,VWS V14.01,2013-11-19 01:37:00,
2013-11-18 19:42:00,44.8,16.0,0.00,SSW,202,5.4,7.2,31,0.00,,---,0.00,VWS V14.01,2013-11-19 01:42:00,
2013-11-18 19:47:00,44.4,16.4,0.00,South,180,4.3,5.4,32,0.00,,---,0.00,VWS V14.01,2013-11-19 01:47:00,
2013-11-18 19:52:00,44.1,16.8,0.00,South,180,3.1,5.8,33,0.00,,---,0.00,VWS V14.01,2013-11-19 01:52:00,
2013-11-18 19:57:00,43.9,16.7,0.00,SSW,202,3.8,5.8,33,0.00,,---,0.00,VWS V14.01,2013-11-19 01:57:00,
2013-11-18 20:02:00,43.9,16.7,0.00,SW,225,4.0,4.3,33,0.00,,---,0.00,VWS V14.01,2013-11-19 02:02:00,
2013-11-18 20:07:00,44.1,17.5,0.00,West,270,3.4,4.9,34,0.00,,---,0.00,VWS V14.01,2013-11-19 02:07:00,
2013-11-18 20:12:00,44.3,17.7,0.00,West,270,2.7,5.8,34,0.00,,---,0.00,VWS V14.01,2013-11-19 02:12:00,
2013-11-18 20:17:00,44.3,18.4,0.00,West,270,2.2,2.7,35,0.00,,---,0.00,VWS V14.01,2013-11-19 02:17:00,
2013-11-18 20:22:00,44.1,18.2,0.00,West,270,2.7,4.0,35,0.00,,---,0.00,VWS V14.01,2013-11-19 02:22:00,
2013-11-18 20:27:00,44.4,19.2,0.00,WNW,292,3.6,4.9,36,0.00,,---,0.00,VWS V14.01,2013-11-19 02:27:00,
2013-11-18 20:32:00,44.3,19.0,0.00,SW,225,4.0,4.3,36,0.00,,---,0.00,VWS V14.01,2013-11-19 02:32:00,
2013-11-18 20:37:00,43.9,19.3,0.00,West,270,2.7,4.9,37,0.00,,---,0.00,VWS V14.01,2013-11-19 02:37:00,
2013-11-18 20:42:00,43.7,19.8,0.00,SW,225,5.4,6.5,38,0.00,,---,0.00,VWS V14.01,2013-11-19 02:42:00,
2013-11-18 20:47:00,44.1,20.1,0.00,SW,225,6.0,8.1,38,0.00,,---,0.00,VWS V14.01,2013-11-19 02:47:00,
2013-11-18 20:52:00,44.1,20.1,0.00,SW,225,6.3,10.1,38,0.00,,---,0.00,VWS V14.01,2013-11-19 02:52:00,
2013-11-18 20:57:00,43.9,20.0,0.00,South,180,7.6,10.1,38,0.00,,---,0.00,VWS V14.01,2013-11-19 02:57:00,
2013-11-18 21:02:00,44.1,20.1,0.00,SW,225,7.4,8.5,38,0.00,,---,0.00,VWS V14.01,2013-11-19 03:02:00,
2013-11-18 21:07:00,43.7,19.2,0.00,SW,225,5.4,8.5,37,0.00,,---,0.00,VWS V14.01,2013-11-19 03:07:00,
2013-11-18 21:09:00,41.2,16.9,0.00,SW,225,3.6,4.7,37,0.00,,---,0.00,VWS V14.01,2013-11-19 03:09:00,
2013-11-18 21:10:00,41.2,16.9,0.00,WSW,248,2.5,4.7,37,0.00,,---,0.00,VWS V14.01,2013-11-19 03:10:00,
2013-11-18 21:12:00,43.4,18.9,0.00,SW,225,6.5,8.5,37,0.00,,---,0.00,VWS V14.01,2013-11-19 03:12:00,
2013-11-18 21:17:00,43.2,18.7,0.00,SW,225,5.6,7.8,37,0.00,,---,0.00,VWS V14.01,2013-11-19 03:17:00,
2013-11-18 21:22:00,43.4,18.9,0.00,SW,225,6.0,8.1,37,0.00,,---,0.00,VWS V14.01,2013-11-19 03:22:00,
2013-11-18 21:27:00,43.7,18.5,0.00,SW,225,8.7,10.7,36,0.00,,---,0.00,VWS V14.01,2013-11-19 03:27:00,
2013-11-18 21:32:00,44.1,18.2,0.00,WSW,248,7.2,8.5,35,0.00,,---,0.00,VWS V14.01,2013-11-19 03:32:00,
2013-11-18 21:37:00,44.1,18.2,0.00,SW,225,3.8,8.5,35,0.00,,---,0.00,VWS V14.01,2013-11-19 03:37:00,
2013-11-18 21:42:00,44.1,18.2,0.00,SW,225,2.9,8.5,35,0.00,,---,0.00,VWS V14.01,2013-11-19 03:42:00,
2013-11-18 21:47:00,42.6,17.6,0.00,SW,225,3.6,6.0,36,0.00,,---,0.00,VWS V14.01,2013-11-19 03:47:00,
2013-11-18 21:52:00,42.1,17.1,0.00,SW,225,3.4,6.0,36,0.00,,---,0.00,VWS V14.01,2013-11-19 03:52:00,
2013-11-18 21:57:00,41.7,16.8,0.00,SW,225,3.4,6.0,36,0.00,,---,0.00,VWS V14.01,2013-11-19 03:57:00,
2013-11-18 22:00:00,40.7,17.6,0.00,WSW,248,3.4,4.0,39,0.00,,---,0.00,VWS V14.01,2013-11-19 04:00:00,
2013-11-18 22:01:00,40.7,17.6,0.00,SW,225,3.6,4.0,39,0.00,,---,0.00,VWS V14.01,2013-11-19 04:01:00,
2013-11-18 22:02:00,41.7,16.8,0.00,West,270,1.6,3.6,36,0.00,,---,0.00,VWS V14.01,2013-11-19 04:02:00,
2013-11-18 22:03:00,40.7,17.6,0.00,NW,315,2.9,4.0,39,0.00,,---,0.00,VWS V14.01,2013-11-19 04:03:00,
2013-11-18 22:04:00,40.7,17.6,0.00,SSW,202,4.0,4.0,39,0.00,,---,0.00,VWS V14.01,2013-11-19 04:04:00,
2013-11-18 22:05:00,40.7,17.6,0.00,NW,315,2.7,4.0,39,0.00,,---,0.00,VWS V14.01,2013-11-19 04:05:00,
2013-11-18 22:06:00,40.7,17.6,0.00,WNW,292,2.5,4.0,39,0.00,,---,0.00,VWS V14.01,2013-11-19 04:06:00,
2013-11-18 22:07:00,41.4,17.1,0.00,West,270,4.0,4.0,37,0.00,,---,0.00,VWS V14.01,2013-11-19 04:07:00,
2013-11-18 22:11:00,41.2,16.9,0.00,SW,225,3.1,4.7,37,0.00,,---,0.00,VWS V14.01,2013-11-19 04:11:00,
2013-11-18 22:16:00,40.8,16.6,0.00,West,270,3.1,3.6,37,0.00,,---,0.00,VWS V14.01,2013-11-19 04:16:00,
2013-11-18 22:21:00,40.8,16.6,0.00,NW,315,3.4,4.3,37,0.00,,---,0.00,VWS V14.01,2013-11-19 04:21:00,
2013-11-18 22:26:00,40.7,17.0,0.00,WNW,292,3.8,4.9,38,0.00,,---,0.00,VWS V14.01,2013-11-19 04:26:00,
2013-11-18 22:31:00,40.5,16.9,0.00,WNW,292,3.6,3.6,38,0.00,,---,0.00,VWS V14.01,2013-11-19 04:31:00,
2013-11-18 22:36:00,40.1,16.6,0.00,SW,225,4.7,6.3,38,0.00,,---,0.00,VWS V14.01,2013-11-19 04:36:00,
2013-11-18 22:41:00,39.9,16.4,0.00,SW,225,6.3,6.3,38,0.00,,---,0.00,VWS V14.01,2013-11-19 04:41:00,
2013-11-18 22:46:00,39.8,16.8,0.00,SW,225,5.8,5.8,39,0.00,,---,0.00,VWS V14.01,2013-11-19 04:46:00,
2013-11-18 22:51:00,40.5,17.5,0.00,SW,225,2.9,6.7,39,0.00,,---,0.00,VWS V14.01,2013-11-19 04:51:00,
2013-11-18 22:56:00,40.7,17.6,0.00,SW,225,2.7,6.7,39,0.00,,---,0.00,VWS V14.01,2013-11-19 04:56:00,
2013-11-18 23:03:00,40.7,17.6,0.00,WNW,292,2.7,4.0,39,0.00,,---,0.00,VWS V14.01,2013-11-19 05:03:00,
2013-11-18 23:08:00,40.7,17.6,0.00,SW,225,4.0,4.7,39,0.00,,---,0.00,VWS V14.01,2013-11-19 05:08:00,
2013-11-18 23:13:00,40.7,17.6,0.00,West,270,3.1,4.9,39,0.00,,---,0.00,VWS V14.01,2013-11-19 05:13:00,
2013-11-18 23:18:00,40.3,17.3,0.00,SW,225,3.1,5.6,39,0.00,,---,0.00,VWS V14.01,2013-11-19 05:18:00,
2013-11-18 23:23:00,40.3,17.3,0.00,WSW,248,2.5,5.6,39,0.00,,---,0.00,VWS V14.01,2013-11-19 05:23:00,
2013-11-18 23:28:00,40.5,17.5,0.00,SW,225,4.3,5.6,39,0.00,,---,0.00,VWS V14.01,2013-11-19 05:28:00,
2013-11-18 23:33:00,40.5,17.5,0.00,West,270,5.8,5.8,39,0.00,,---,0.00,VWS V14.01,2013-11-19 05:33:00,
2013-11-18 23:38:00,40.5,17.5,0.00,WSW,248,3.1,5.8,39,0.00,,---,0.00,VWS V14.01,2013-11-19 05:38:00,
2013-11-18 23:43:00,40.8,17.8,0.00,WNW,292,2.5,5.8,39,0.00,,---,0.00,VWS V14.01,2013-11-19 05:43:00,
2013-11-18 23:48:00,40.7,17.6,0.00,West,270,3.8,5.4,39,0.00,,---,0.00,VWS V14.01,2013-11-19 05:48:00,
2013-11-18 23:53:00,40.7,17.6,0.00,WNW,292,3.1,5.4,39,0.00,,---,0.00,VWS V14.01,2013-11-19 05:53:00,
2013-11-18 23:58:00,40.5,17.5,0.00,West,270,3.4,5.4,39,0.00,,---,0.00,VWS V14.01,2013-11-19 05:58:00,